Regional Weather Roundup
Issued by NWS

Home | Current Version | Previous Version | Graphics & Text | Print | Product List | Glossary On
Versions: 1 2 3 4 5 6 7 8 9 10 11 12 13 14 15 16 17 18 19 20 21 22 23 24 25 26 27 28 29 30 31 32 33 34 35 36 37 38 39 40 41 42 43 44 45 46 47 48 49 50
000
ASUS43 KTOP 270908
RWRKS

WEATHER ROUNDUP FOR KANSAS
NATIONAL WEATHER SERVICE GOODLAND KS
400 AM CDT TUE JUN 27 2017

NOTE:  "FAIR" INDICATES FEW OR NO CLOUDS BELOW 12,000 FEET WITH NO
SIGNIFICANT WEATHER AND/OR OBSTRUCTIONS TO VISIBILITY.

KSZ001>006-013>018-027>032-041>047-271000-
NORTHWEST KANSAS

CITY           SKY/WX    TMP DP  RH WIND       PRES   REMARKS
GOODLAND       CLEAR     59  58  96 SE12      30.06F
HAYS           PTCLDY    62  60  93 E9        30.06F
HILL CITY      MOCLDY    61  61 100 E8        30.07F
RUSSELL        PTCLDY    63  60  90 E14       30.05F
$$

KSZ061>065-074>080-084>089-271000-
SOUTHWEST KANSAS

CITY           SKY/WX    TMP DP  RH WIND       PRES   REMARKS
DODGE CITY     MOCLDY    64  60  87 E7        30.03F
ELKHART          N/A     67  50  54 S10         N/A
GARDEN CITY    PTCLDY    64  60  87 E8        30.02F
GREAT BEND     PTCLDY    64  62  93 E10       30.05F
LIBERAL        CLOUDY    69  61  75 S12       30.03F
PRATT          PTCLDY    64  58  83 SE8       30.06R
$$

KSZ066>073-081>083-090>101-271000-
SOUTHEAST KANSAS

CITY           SKY/WX    TMP DP  RH WIND       PRES   REMARKS
CHANUTE        MOCLDY    63  61  93 NE3       30.09S
COFFEYVILLE    LGT RAIN  65  63  93 CALM      30.09S
HUTCHINSON     CLOUDY    65  63  93 E10       30.06F
MEDICINE LODGE   N/A     67  63  87 SE9       30.04S
NEWTON         MOCLDY    62  61  96 E8        30.09F
PARSONS        CLOUDY    64  62  93 CALM      30.09F
WICHITA INTL   MOCLDY    66  65  96 E9        30.07R
WICHITA JABRA  MOCLDY    64  63  96 E7        30.08S
WICHITA MCCONL MOCLDY    65  62  88 E9        30.08S
WINFIELD       MOCLDY    66  64  93 E9        30.08F
$$

KSZ007>012-019>026-033>040-048>060-102>105-271000-
NORTHEAST KANSAS

CITY           SKY/WX    TMP DP  RH WIND       PRES   REMARKS
CONCORDIA      FOG       58  58 100 SE7       30.10F VSB 3/4
EMPORIA        CLOUDY    61  60  97 E7        30.09F
LAWRENCE       CLEAR     56  56 100 E3        30.13F FOG
MANHATTAN      CLOUDY    61  60  97 E6        30.11F
MARYSVILLE     CLEAR     55  55 100 SE5       30.12F FOG
OLATHE IND     CLEAR     58  56  93 E6        30.13F
OLATHE EXE     CLEAR     57  56  96 SE3       30.13F
SALINA         CLOUDY    66  61  84 E7        30.09S
TOPEKA BILLARD CLEAR     58  58 100 E3        30.12F
TOPEKA FORBES  CLEAR     59  57  93 E3        30.12F
$$




USA.gov is the U.S. government's official web portal to all federal, state and local government web resources and services.